Date String (YYYY-MM-DD hh:mm:ss) UTC,Instrument flags,Ambient pressure (hPa),Sample flow (lpm),Bypass flow (lpm),Sample temperature (°C),Ambient temperature (°C),ASC tube jacket temperature (°C),LED temperature (°C),Box temperature (°C),Sample RH (%),Span deviation,Mass concentration (μg/m³),Mass concentration (μg/m³),Mass concentration (μg/m³)
DateTimeUTC,F1_M11,P_M11,Q1_M11,Q2_M11,T1_M11,T2_M11,T3_M11,T4_M11,T5_M11,U1_M11,ZSPAN_M11,X2_M11,X0_M11,X1_M11
2022-10-11 17:00:00,,0820.9,5.01,0.00,29.8,26.5,00.0,38.6,31.5,10.1,0000.8,0011.25,0240.34,0004.98
2022-10-11 17:01:00,,0820.9,5.01,0.00,29.7,26.8,00.0,38.5,31.4,10.1,0000.0,0011.08,0239.81,0004.86
2022-10-11 17:02:00,,0820.7,4.99,0.00,29.7,27.1,00.0,38.5,31.4,10.0,0000.0,0010.96,0239.58,0004.76
2022-10-11 17:03:00,,0820.7,5.00,0.00,29.7,27.4,00.0,38.5,31.4,10.0,0000.0,0010.86,0240.40,0004.70
2022-10-11 17:04:00,,0820.9,5.01,0.00,29.7,27.6,00.0,38.5,31.4,10.0,0000.0,0010.73,0243.26,0004.62
2022-10-11 17:05:00,,0820.8,5.00,0.00,29.7,27.8,00.0,38.5,31.4,10.0,0000.0,0010.61,0243.35,0004.54
2022-10-11 17:06:00,,0820.8,4.99,0.00,29.7,27.9,00.0,38.4,31.4,10.0,0000.0,0010.54,0242.93,0004.47
2022-10-11 17:07:00,,0820.9,5.01,0.00,29.7,28.0,00.0,38.4,31.5,10.4,0000.0,0007.84,0133.99,0004.29
2022-10-11 17:08:00,,0820.9,5.01,0.00,29.7,28.1,00.0,38.4,31.5,10.1,0000.0,0004.78,0018.05,0004.11
2022-10-11 17:09:00,,0820.9,4.99,0.00,29.7,28.2,00.0,38.4,31.5,10.0,0000.0,0004.76,0017.25,0004.10
2022-10-11 17:10:00,,0820.9,5.00,0.00,29.7,28.2,00.0,38.4,31.5,10.2,0000.0,0004.80,0017.09,0004.12
2022-10-11 17:11:00,,0820.9,5.01,0.00,29.7,28.3,00.0,38.5,31.5,10.0,0000.0,0004.84,0015.94,0004.15
2022-10-11 17:12:00,,0820.9,4.98,0.00,29.7,28.4,00.0,38.5,31.6,10.0,0000.0,0004.91,0016.09,0004.18
2022-10-11 17:13:00,,0820.9,5.01,0.00,29.7,28.5,00.0,38.5,31.6,09.9,0000.0,0004.94,0016.22,0004.20
2022-10-11 17:14:00,,0820.8,5.00,0.00,29.8,28.5,00.0,38.5,31.6,09.9,0000.0,0004.94,0015.68,0004.21
2022-10-11 17:15:00,,0820.8,5.00,0.00,29.8,28.6,00.0,38.5,31.7,09.9,0000.0,0004.91,0012.17,0004.21
2022-10-11 17:16:00,,0820.6,5.01,0.00,29.8,28.6,00.0,38.5,31.7,09.9,0000.0,0004.91,0011.66,0004.21
2022-10-11 17:17:00,,0820.8,4.99,0.00,29.8,28.7,00.0,38.5,31.7,09.9,0000.0,0004.88,0011.44,0004.19
2022-10-11 17:18:00,,0820.8,5.01,0.00,29.9,28.7,00.0,38.6,31.8,09.8,0000.0,0004.75,0010.31,0004.17
2022-10-11 17:19:00,,0820.7,5.00,0.00,29.9,28.8,00.0,38.6,31.8,09.9,0000.0,0004.63,0009.28,0004.17
2022-10-11 17:20:00,,0820.7,5.00,0.00,29.9,28.2,00.0,38.6,31.8,09.8,0000.0,0004.58,0010.37,0004.15
2022-10-11 17:21:00,,0820.6,5.01,0.00,29.9,26.7,00.0,38.6,31.6,09.9,0000.0,0004.56,0011.34,0004.13
2022-10-11 17:22:00,,0820.6,4.99,0.00,29.8,26.2,00.0,38.5,31.5,10.1,0000.0,0004.53,0011.65,0004.10
2022-10-11 17:23:00,,0820.6,4.99,0.00,29.8,26.5,00.0,38.5,31.4,10.4,0000.0,0004.49,0011.66,0004.06
2022-10-11 17:24:00,,0820.6,4.99,0.00,29.7,26.8,00.0,38.4,31.3,11.0,0000.0,0004.64,0017.69,0004.02
2022-10-11 17:25:00,,0820.6,5.01,0.00,29.7,27.2,00.0,38.4,31.3,12.0,0000.0,0005.66,0057.67,0004.03
2022-10-11 17:26:00,,0820.6,5.00,0.00,29.7,27.5,00.0,38.4,31.4,12.6,0000.0,0007.71,0155.45,0004.13
2022-10-11 17:27:00,,0820.5,4.99,0.00,29.7,27.7,00.0,38.4,31.4,12.7,0000.0,0009.90,0197.87,0004.32
2022-10-11 17:28:00,,0820.6,5.00,0.00,29.7,27.9,00.0,38.4,31.5,12.5,0000.0,0010.45,0211.34,0004.35
2022-10-11 17:29:00,,0820.7,5.00,0.00,29.7,28.1,00.0,38.4,31.5,13.2,0000.0,0010.48,0212.66,0004.35
2022-10-11 17:30:00,,0820.7,4.99,0.00,29.7,28.2,00.0,38.4,31.5,12.1,0000.0,0010.52,0213.17,0004.34
2022-10-11 17:31:00,,0820.8,5.00,0.00,29.7,28.3,00.0,38.4,31.5,11.6,0000.0,0010.58,0212.93,0004.34
2022-10-11 17:32:00,,0820.7,5.01,0.00,29.7,28.4,00.0,38.4,31.6,11.3,0000.0,0010.66,0212.79,0004.34
2022-10-11 17:33:00,,0820.7,5.00,0.00,29.7,28.5,00.0,38.4,31.7,09.6,0000.0,0010.74,0213.03,0004.39
2022-10-11 17:34:00,,0820.8,5.00,0.00,29.8,28.6,00.0,38.5,31.7,07.9,0000.0,0010.83,0213.35,0004.51
2022-10-11 17:35:00,,0820.9,5.00,0.00,29.8,28.7,00.0,38.5,31.8,09.4,0000.0,0010.71,0206.57,0004.61
2022-10-11 17:36:00,,0820.8,5.00,0.00,29.9,28.8,00.0,38.5,31.8,09.7,0000.0,0009.69,0162.92,0004.64
2022-10-11 17:37:00,,0820.9,5.01,0.00,29.9,28.3,00.0,38.5,31.9,08.0,0000.0,0007.75,0068.19,0004.62
2022-10-11 17:38:00,,0820.8,5.00,0.00,29.9,26.6,00.0,38.5,31.7,07.9,0000.0,0005.58,0025.03,0004.48
2022-10-11 17:39:00,,0820.8,5.01,0.00,29.8,26.0,00.0,38.4,31.6,07.9,0000.0,0005.18,0013.22,0004.52
2022-10-11 17:40:00,,0820.7,5.00,0.00,29.8,26.5,00.0,38.4,31.6,07.8,0000.0,0005.27,0012.80,0004.60
2022-10-11 17:41:00,,0820.7,5.00,0.00,29.7,26.8,00.0,38.4,31.4,07.9,0000.0,0005.34,0012.74,0004.70
2022-10-11 17:42:00,,0820.7,5.01,0.00,29.7,27.2,00.0,38.4,31.5,07.8,0000.0,0005.39,0012.07,0004.80
2022-10-11 17:43:00,,0820.7,5.00,0.00,29.7,27.5,00.0,38.4,31.5,08.1,0000.0,0005.43,0010.77,0004.87
2022-10-11 17:44:00,,0820.7,4.98,0.00,29.7,27.7,00.0,38.4,31.5,08.1,0000.0,0005.44,0010.27,0004.91
2022-10-11 17:45:00,,0820.6,5.00,0.00,29.7,27.9,00.0,38.4,31.5,07.9,0000.0,0005.48,0010.60,0004.92
2022-10-11 17:46:00,,0820.6,5.01,0.00,29.7,28.1,00.0,38.4,31.6,07.9,0000.0,0005.50,0010.90,0004.94
2022-10-11 17:47:00,,0820.5,5.01,0.00,29.7,28.2,00.0,38.4,31.6,08.1,0000.0,0005.53,0010.94,0004.97
2022-10-11 17:48:00,,0820.5,5.01,0.00,29.7,28.3,00.0,38.4,31.6,08.1,0000.0,0005.55,0011.25,0004.97
2022-10-11 17:49:00,,0820.6,5.00,0.00,29.7,28.4,00.0,38.4,31.7,08.0,0000.0,0005.56,0011.29,0004.99
2022-10-11 17:50:00,,0820.6,5.00,0.00,29.7,28.5,00.0,38.4,31.7,08.0,0000.0,0005.56,0011.13,0005.01
2022-10-11 17:51:00,,0820.6,5.01,0.00,29.8,28.0,00.0,38.4,31.7,08.1,0000.2,0005.52,0010.55,0005.03
2022-10-11 17:52:00,,0820.6,4.99,0.00,29.7,26.6,00.0,38.4,31.5,08.2,0000.6,0005.50,0010.08,0005.03
2022-10-11 17:53:00,,0820.6,5.01,0.00,29.7,26.3,00.0,38.3,31.4,08.0,0000.6,0005.48,0010.08,0005.02
2022-10-11 17:54:00,,0820.6,5.00,0.00,29.6,26.6,00.0,38.3,31.4,08.1,0000.1,0005.45,0009.99,0005.01
2022-10-11 17:55:00,,0820.6,4.99,0.00,29.6,26.9,00.0,38.3,31.4,08.3,0000.0,0005.44,0010.28,0005.02
2022-10-11 17:56:00,,0820.6,5.01,0.00,29.6,27.3,00.0,38.3,31.4,08.4,0000.0,0005.42,0009.97,0005.02
2022-10-11 17:57:00,,0820.6,4.99,0.00,29.6,27.5,00.0,38.3,31.4,08.4,0000.1,0005.40,0010.14,0005.02
2022-10-11 17:58:00,,0820.6,5.00,0.00,29.6,27.8,00.0,38.3,31.5,08.4,-000.0,0005.37,0010.82,0005.01
2022-10-11 17:59:00,,0820.6,4.99,0.00,29.6,28.0,00.0,38.3,31.5,08.4,-000.0,0005.35,0011.34,0005.01
